Regional Weather Roundup
Issued by NWS

Home | Current Version | Previous Version | Text Only | Print | Product List | Glossary On
Versions: 1 2 3 4 5 6 7 8 9 10 11 12 13 14 15 16 17 18 19 20 21 22 23 24 25 26 27 28 29 30 31 32 33 34 35 36 37 38 39 40 41 42 43 44 45 46 47 48 49 50
000
ASUS45 KREV 281310
RWRNV
NEVADA REGIONAL WEATHER ROUNDUP
NATIONAL WEATHER SERVICE RENO NV
600 AM PDT TUE JUL 28 2015

NOTE: "FAIR" INDICATES FEW OR NO CLOUDS BELOW 12,000 FEET WITH NO
SIGNIFICANT WEATHER AND/OR OBSTRUCTIONS TO VISIBILITY.

NVZ001-003-004-281400-
WESTERN NEVADA

CITY           SKY/WX    TMP DP  RH WIND       PRES   REMARKS
RENO           CLEAR     56  32  40 SE3       30.21R
CARSON CITY    FAIR      54  25  32 CALM      30.21R
MINDEN         FAIR      41  32  70 E5        30.21R
SLIDE MTN        N/A     43  25  49 E17         N/A
PYRAMID LAKE     N/A     64 N/A N/A SW7         N/A
FALLON         NOT AVBL
LOVELOCK       CLEAR     57  24  28 NE8       30.18S
HAWTHORNE      CLEAR     61  36  39 CALM      30.18R
$$

NVZ002-CAZ072-073-281400-
NORTHERN AND CENTRAL SIERRA

CITY           SKY/WX    TMP DP  RH WIND       PRES   REMARKS
S. LAKE TAHOE  CLEAR     42  30  62 CALM      30.24S
TRUCKEE        CLEAR     36  32  87 CALM      30.25S
SQUAW VLY 8000   N/A     48  28  46 NE3         N/A
SUSANVILLE     CLEAR     46  27  46 W7        30.21R
MAMMOTH LAKES  FAIR      48  27  43 W10       30.30R
$$

NVZ030-031-036-281400-
NORTHERN NEVADA

CITY           SKY/WX    TMP DP  RH WIND       PRES   REMARKS
ELKO           CLEAR     40  29  64 CALM      30.28R
WINNEMUCCA     NOT AVBL
WENDOVER       CLEAR     57  28  33 CALM      30.27R
$$

NVZ035-037-281400-
CENTRAL NEVADA

CITY           SKY/WX    TMP DP  RH WIND       PRES   REMARKS
ELY            CLEAR     48  23  37 NE6       30.30R
EUREKA           N/A     37  21  52 S3        30.29R
$$

NVZ013-014-281400-
SOUTH CENTRAL NEVADA

CITY           SKY/WX    TMP DP  RH WIND       PRES   REMARKS
TONOPAH        CLEAR     57  24  28 N14       30.20R
$$

NVZ017-020-022-281400-
SOUTHERN NEVADA

CITY           SKY/WX    TMP DP  RH WIND       PRES   REMARKS
LAS VEGAS      CLEAR     79  29  16 NW6       29.88R
N. LAS VEGAS   CLEAR     80  23  12 N8        29.90R
NELLIS AFB     CLEAR     80  29  15 E9        29.89R
HENDERSON      CLEAR     74  30  19 S6        29.95R
MERCURY        CLEAR     74  23  15 NE13      29.99R
$$


USA.gov is the U.S. government's official web portal to all federal, state and local government web resources and services.